Year,Month,Day,Hour,Minute,Value (Times are PST for temperature in C)
2007,08,19,00,00,14.60
2007,08,19,00,01,14.60
2007,08,19,00,02,14.60
2007,08,19,00,03,14.60
2007,08,19,00,04,14.60
2007,08,19,00,05,14.60
2007,08,19,00,06,14.60
2007,08,19,00,07,14.60
2007,08,19,00,08,14.60
2007,08,19,00,09,14.60
2007,08,19,00,10,14.60
2007,08,19,00,11,14.60
2007,08,19,00,12,14.60
2007,08,19,00,13,14.60
2007,08,19,00,14,14.60
2007,08,19,00,15,14.60
2007,08,19,00,16,14.60
2007,08,19,00,17,14.60
2007,08,19,00,18,14.60
2007,08,19,00,19,14.60
2007,08,19,00,20,14.60
2007,08,19,00,21,14.60
2007,08,19,00,22,14.60
2007,08,19,00,23,14.50
2007,08,19,00,24,14.50
2007,08,19,00,25,14.50
2007,08,19,00,26,14.50
2007,08,19,00,27,14.40
2007,08,19,00,28,14.40
2007,08,19,00,29,14.40
2007,08,19,00,30,14.40
2007,08,19,00,31,14.40
2007,08,19,00,32,14.40
2007,08,19,00,33,14.40
2007,08,19,00,34,14.40
2007,08,19,00,35,14.40
2007,08,19,00,36,14.30
2007,08,19,00,37,14.30
2007,08,19,00,38,14.30
2007,08,19,00,39,14.30
2007,08,19,00,40,14.30
2007,08,19,00,41,14.30
2007,08,19,00,42,14.30
2007,08,19,00,43,14.30
2007,08,19,00,44,14.30
2007,08,19,00,45,14.30
2007,08,19,00,46,14.30
2007,08,19,00,47,14.30
2007,08,19,00,48,14.30
2007,08,19,00,49,14.30
2007,08,19,00,50,14.20
2007,08,19,00,51,14.20
2007,08,19,00,52,14.20
2007,08,19,00,53,14.20
2007,08,19,00,54,14.20
2007,08,19,00,55,14.20
2007,08,19,00,56,14.20
2007,08,19,00,57,14.20
2007,08,19,00,58,14.20
2007,08,19,00,59,14.20
2007,08,19,01,00,14.20
2007,08,19,01,01,14.20
2007,08,19,01,02,14.20
2007,08,19,01,03,14.20
2007,08,19,01,04,14.20
2007,08,19,01,05,14.10
2007,08,19,01,06,14.10
2007,08,19,01,07,14.10
2007,08,19,01,08,14.10
2007,08,19,01,09,14.10
2007,08,19,01,10,14.10
2007,08,19,01,11,14.10
2007,08,19,01,12,14.10
2007,08,19,01,13,14.00
2007,08,19,01,14,14.00
2007,08,19,01,15,14.00
2007,08,19,01,16,13.90
2007,08,19,01,17,13.90
2007,08,19,01,18,13.90
2007,08,19,01,19,13.90
2007,08,19,01,20,13.90
2007,08,19,01,21,13.90
2007,08,19,01,22,13.90
2007,08,19,01,23,13.90
2007,08,19,01,24,13.80
2007,08,19,01,25,13.80
2007,08,19,01,26,13.80
2007,08,19,01,27,13.80
2007,08,19,01,28,13.80
2007,08,19,01,29,13.80
2007,08,19,01,30,13.80
2007,08,19,01,31,13.80
2007,08,19,01,32,13.80
2007,08,19,01,33,13.80
2007,08,19,01,34,13.80
2007,08,19,01,35,13.80
2007,08,19,01,36,13.80
2007,08,19,01,37,13.80
2007,08,19,01,38,13.80
2007,08,19,01,39,13.80
2007,08,19,01,40,13.80
2007,08,19,01,41,13.80
2007,08,19,01,42,13.80
2007,08,19,01,43,13.80
2007,08,19,01,44,13.80
2007,08,19,01,45,13.80
2007,08,19,01,46,13.80
2007,08,19,01,47,13.90
2007,08,19,01,48,13.90
2007,08,19,01,49,13.90
2007,08,19,01,50,13.90
2007,08,19,01,51,13.90
2007,08,19,01,52,13.90
2007,08,19,01,53,13.90
2007,08,19,01,54,13.90
2007,08,19,01,55,13.90
2007,08,19,01,56,13.90
2007,08,19,01,57,14.00
2007,08,19,01,58,14.00
2007,08,19,01,59,14.00
2007,08,19,02,00,14.00
2007,08,19,02,01,14.00
2007,08,19,02,02,14.00
2007,08,19,02,03,14.00
2007,08,19,02,04,14.00
2007,08,19,02,05,14.00
2007,08,19,02,06,14.00
2007,08,19,02,07,14.00
2007,08,19,02,08,14.00
2007,08,19,02,09,14.00
2007,08,19,02,10,14.00
2007,08,19,02,11,14.00
2007,08,19,02,12,14.00
2007,08,19,02,13,14.00
2007,08,19,02,14,14.00
2007,08,19,02,15,14.00
2007,08,19,02,16,14.00
2007,08,19,02,17,13.90
2007,08,19,02,18,13.90
2007,08,19,02,19,13.90
2007,08,19,02,20,13.90
2007,08,19,02,21,13.90
2007,08,19,02,22,13.90
2007,08,19,02,23,13.90
2007,08,19,02,24,13.90
2007,08,19,02,25,13.90
2007,08,19,02,26,13.90
2007,08,19,02,27,13.90
2007,08,19,02,28,13.90
2007,08,19,02,29,13.90
2007,08,19,02,30,13.80
2007,08,19,02,31,13.80
2007,08,19,02,32,13.80
2007,08,19,02,33,13.80
2007,08,19,02,34,13.80
2007,08,19,02,35,13.80
2007,08,19,02,36,13.80
2007,08,19,02,37,13.80
2007,08,19,02,38,13.80
2007,08,19,02,39,13.80
2007,08,19,02,40,13.80
2007,08,19,02,41,13.80
2007,08,19,02,42,13.80
2007,08,19,02,43,13.80
2007,08,19,02,44,13.80
2007,08,19,02,45,13.80
2007,08,19,02,46,13.80
2007,08,19,02,47,13.80
2007,08,19,02,48,13.80
2007,08,19,02,49,13.80
2007,08,19,02,50,13.80
2007,08,19,02,51,13.80
2007,08,19,02,52,13.80
2007,08,19,02,53,13.80
2007,08,19,02,54,13.80
2007,08,19,02,55,13.80
2007,08,19,02,56,13.80
2007,08,19,02,57,13.80
2007,08,19,02,58,13.80
2007,08,19,02,59,13.80
2007,08,19,03,00,13.80
2007,08,19,03,01,13.80
2007,08,19,03,02,13.80
2007,08,19,03,03,13.80
2007,08,19,03,04,13.80
2007,08,19,03,05,13.70
2007,08,19,03,06,13.70
2007,08,19,03,07,13.70
2007,08,19,03,08,13.70
2007,08,19,03,09,13.70
2007,08,19,03,10,13.70
2007,08,19,03,11,13.70
2007,08,19,03,12,13.70
2007,08,19,03,13,13.70
2007,08,19,03,14,13.70
2007,08,19,03,15,13.70
2007,08,19,03,16,13.70
2007,08,19,03,17,13.70
2007,08,19,03,18,13.70
2007,08,19,03,19,13.70
2007,08,19,03,20,13.70
2007,08,19,03,21,13.60
2007,08,19,03,22,13.60
2007,08,19,03,23,13.60
2007,08,19,03,24,13.60
2007,08,19,03,25,13.60
2007,08,19,03,26,13.60
2007,08,19,03,27,13.60
2007,08,19,03,28,13.60
2007,08,19,03,29,13.60
2007,08,19,03,30,13.60
2007,08,19,03,31,13.60
2007,08,19,03,32,13.60
2007,08,19,03,33,13.60
2007,08,19,03,34,13.60
2007,08,19,03,35,13.60
2007,08,19,03,36,13.60
2007,08,19,03,37,13.60
2007,08,19,03,38,13.60
2007,08,19,03,39,13.60
2007,08,19,03,40,13.60
2007,08,19,03,41,13.60
2007,08,19,03,42,13.60
2007,08,19,03,43,13.60
2007,08,19,03,44,13.60
2007,08,19,03,45,13.60
2007,08,19,03,46,13.60
2007,08,19,03,47,13.70
2007,08,19,03,48,13.70
2007,08,19,03,49,13.60
2007,08,19,03,50,13.60
2007,08,19,03,51,13.60
2007,08,19,03,52,13.60
2007,08,19,03,53,13.60
2007,08,19,03,54,13.60
2007,08,19,03,55,13.60
2007,08,19,03,56,13.60
2007,08,19,03,57,13.60
2007,08,19,03,58,13.60
2007,08,19,03,59,13.60
2007,08,19,04,00,13.60
2007,08,19,04,01,13.60
2007,08,19,04,02,13.60
2007,08,19,04,03,13.60
2007,08,19,04,04,13.60
2007,08,19,04,05,13.60
2007,08,19,04,06,13.60
2007,08,19,04,07,13.60
2007,08,19,04,08,13.60
2007,08,19,04,09,13.60
2007,08,19,04,10,13.60
2007,08,19,04,11,13.60
2007,08,19,04,12,13.60
2007,08,19,04,13,13.60
2007,08,19,04,14,13.60
2007,08,19,04,15,13.60
2007,08,19,04,16,13.60
2007,08,19,04,17,13.60
2007,08,19,04,18,13.60
2007,08,19,04,19,13.60
2007,08,19,04,20,13.60
2007,08,19,04,21,13.60
2007,08,19,04,22,13.70
2007,08,19,04,23,13.70
2007,08,19,04,24,13.60
2007,08,19,04,25,13.60
2007,08,19,04,26,13.60
2007,08,19,04,27,13.60
2007,08,19,04,28,13.70
2007,08,19,04,29,13.60
2007,08,19,04,30,13.60
2007,08,19,04,31,13.60
2007,08,19,04,32,13.60
2007,08,19,04,33,13.60
2007,08,19,04,34,13.60
2007,08,19,04,35,13.60
2007,08,19,04,36,13.60
2007,08,19,04,37,13.60
2007,08,19,04,38,13.60
2007,08,19,04,39,13.60
2007,08,19,04,40,13.60
2007,08,19,04,41,13.60
2007,08,19,04,42,13.60
2007,08,19,04,43,13.60
2007,08,19,04,44,13.60
2007,08,19,04,45,13.60
2007,08,19,04,46,13.60
2007,08,19,04,47,13.60
2007,08,19,04,48,13.60
2007,08,19,04,49,13.60
2007,08,19,04,50,13.60
2007,08,19,04,51,13.60
2007,08,19,04,52,13.60
2007,08,19,04,53,13.60
2007,08,19,04,54,13.60
2007,08,19,04,55,13.60
2007,08,19,04,56,13.60
2007,08,19,04,57,13.60
2007,08,19,04,58,13.60
2007,08,19,04,59,13.60
2007,08,19,05,00,13.60
2007,08,19,05,01,13.60
2007,08,19,05,02,13.60
2007,08,19,05,03,13.60
2007,08,19,05,04,13.60
2007,08,19,05,05,13.60
2007,08,19,05,06,13.60
2007,08,19,05,07,13.60
2007,08,19,05,08,13.60
2007,08,19,05,09,13.60
2007,08,19,05,10,13.60
2007,08,19,05,11,13.60
2007,08,19,05,12,13.60
2007,08,19,05,13,13.60
2007,08,19,05,14,13.60
2007,08,19,05,15,13.70
2007,08,19,05,16,13.70
2007,08,19,05,17,13.70
2007,08,19,05,18,13.70
2007,08,19,05,19,13.70
2007,08,19,05,20,13.70
2007,08,19,05,21,13.70
2007,08,19,05,22,13.70
2007,08,19,05,23,13.70
2007,08,19,05,24,13.70
2007,08,19,05,25,13.70
2007,08,19,05,26,13.70
2007,08,19,05,27,13.70
2007,08,19,05,28,13.70
2007,08,19,05,29,13.70
2007,08,19,05,30,13.70
2007,08,19,05,31,13.70
2007,08,19,05,32,13.70
2007,08,19,05,33,13.70
2007,08,19,05,34,13.70
2007,08,19,05,35,13.70
2007,08,19,05,36,13.70
2007,08,19,05,37,13.70
2007,08,19,05,38,13.70
2007,08,19,05,39,13.70
2007,08,19,05,40,13.70
2007,08,19,05,41,13.70
2007,08,19,05,42,13.70
2007,08,19,05,43,13.70
2007,08,19,05,44,13.70
2007,08,19,05,45,13.70
2007,08,19,05,46,13.70
2007,08,19,05,47,13.70
2007,08,19,05,48,13.70
2007,08,19,05,49,13.70
2007,08,19,05,50,13.70
2007,08,19,05,51,13.70
2007,08,19,05,52,13.70
2007,08,19,05,53,13.70
2007,08,19,05,54,13.70
2007,08,19,05,55,13.70
2007,08,19,05,56,13.70
2007,08,19,05,57,13.70
2007,08,19,05,58,13.70
2007,08,19,05,59,13.70
2007,08,19,06,00,13.70
2007,08,19,06,01,13.70
2007,08,19,06,02,13.70
2007,08,19,06,03,13.70
2007,08,19,06,04,13.70
2007,08,19,06,05,13.70
2007,08,19,06,06,13.70
2007,08,19,06,07,13.70
2007,08,19,06,08,13.70
2007,08,19,06,09,13.70
2007,08,19,06,10,13.70
2007,08,19,06,11,13.70
2007,08,19,06,12,13.70
2007,08,19,06,13,13.70
2007,08,19,06,14,13.70
2007,08,19,06,15,13.70
2007,08,19,06,16,13.70
2007,08,19,06,17,13.70
2007,08,19,06,18,13.70
2007,08,19,06,19,13.70
2007,08,19,06,20,13.70
2007,08,19,06,21,13.70
2007,08,19,06,22,13.70
2007,08,19,06,23,13.70
2007,08,19,06,24,13.70
2007,08,19,06,25,13.70
2007,08,19,06,26,13.70
2007,08,19,06,27,13.70
2007,08,19,06,28,13.60
2007,08,19,06,29,13.60
2007,08,19,06,30,13.60
2007,08,19,06,31,13.60
2007,08,19,06,32,13.60
2007,08,19,06,33,13.60
2007,08,19,06,34,13.60
2007,08,19,06,35,13.60
2007,08,19,06,36,13.60
2007,08,19,06,37,13.60
2007,08,19,06,38,13.70
2007,08,19,06,39,13.70
2007,08,19,06,40,13.70
2007,08,19,06,41,13.70
2007,08,19,06,42,13.70
2007,08,19,06,43,13.70
2007,08,19,06,44,13.70
2007,08,19,06,45,13.70
2007,08,19,06,46,13.70
2007,08,19,06,47,13.70
2007,08,19,06,48,13.70
2007,08,19,06,49,13.70
2007,08,19,06,50,13.70
2007,08,19,06,51,13.70
2007,08,19,06,52,13.70
2007,08,19,06,53,13.70
2007,08,19,06,54,13.70
2007,08,19,06,55,13.70
2007,08,19,06,56,13.70
2007,08,19,06,57,13.80
2007,08,19,06,58,13.80
2007,08,19,06,59,13.80
2007,08,19,07,00,13.80
2007,08,19,07,01,13.80
2007,08,19,07,02,13.80
2007,08,19,07,03,13.80
2007,08,19,07,04,13.80
2007,08,19,07,05,13.80
2007,08,19,07,06,13.80
2007,08,19,07,07,13.80
2007,08,19,07,08,13.80
2007,08,19,07,09,13.80
2007,08,19,07,10,13.80
2007,08,19,07,11,13.80
2007,08,19,07,12,13.80
2007,08,19,07,13,13.80
2007,08,19,07,14,13.80
2007,08,19,07,15,13.80
2007,08,19,07,16,13.80
2007,08,19,07,17,13.80
2007,08,19,07,18,13.80
2007,08,19,07,19,13.80
2007,08,19,07,20,13.90
2007,08,19,07,21,13.90
2007,08,19,07,22,13.90
2007,08,19,07,23,13.90
2007,08,19,07,24,13.90
2007,08,19,07,25,13.90
2007,08,19,07,26,13.90
2007,08,19,07,27,13.90
2007,08,19,07,28,13.90
2007,08,19,07,29,13.90
2007,08,19,07,30,13.90
2007,08,19,07,31,13.90
2007,08,19,07,32,13.90
2007,08,19,07,33,13.90
2007,08,19,07,34,13.90
2007,08,19,07,35,13.90
2007,08,19,07,36,13.90
2007,08,19,07,37,13.90
2007,08,19,07,38,13.90
2007,08,19,07,39,13.90
2007,08,19,07,40,13.90
2007,08,19,07,41,13.90
2007,08,19,07,42,13.90
2007,08,19,07,43,13.90
2007,08,19,07,44,13.90
2007,08,19,07,45,13.90
2007,08,19,07,46,14.00
2007,08,19,07,47,14.00
2007,08,19,07,48,14.00
2007,08,19,07,49,14.00
2007,08,19,07,50,14.00
2007,08,19,07,51,14.00
2007,08,19,07,52,14.00
2007,08,19,07,53,14.00
2007,08,19,07,54,14.00
2007,08,19,07,55,14.00
2007,08,19,07,56,13.90
2007,08,19,07,57,13.90
2007,08,19,07,58,13.90
2007,08,19,07,59,13.90
2007,08,19,08,00,13.90
2007,08,19,08,01,13.90
2007,08,19,08,02,13.90
2007,08,19,08,03,13.90
2007,08,19,08,04,13.90
2007,08,19,08,05,13.80
2007,08,19,08,06,13.80
2007,08,19,08,07,13.80
2007,08,19,08,08,13.80
2007,08,19,08,09,13.80
2007,08,19,08,10,13.80
2007,08,19,08,11,13.80
2007,08,19,08,12,13.80
2007,08,19,08,13,13.80
2007,08,19,08,14,13.80
2007,08,19,08,15,13.80
2007,08,19,08,16,13.70
2007,08,19,08,17,13.70
2007,08,19,08,18,13.70
2007,08,19,08,19,13.70
2007,08,19,08,20,13.60
2007,08,19,08,21,13.60
2007,08,19,08,22,13.60
2007,08,19,08,23,13.50
2007,08,19,08,24,13.50
2007,08,19,08,25,13.40
2007,08,19,08,26,13.40
2007,08,19,08,27,13.40
2007,08,19,08,28,13.40
2007,08,19,08,29,13.40
2007,08,19,08,30,13.40
2007,08,19,08,31,13.30
2007,08,19,08,32,13.30
2007,08,19,08,33,13.30
2007,08,19,08,34,13.30
2007,08,19,08,35,13.30
2007,08,19,08,36,13.30
2007,08,19,08,37,13.30
2007,08,19,08,38,13.30
2007,08,19,08,39,13.30
2007,08,19,08,40,13.30
2007,08,19,08,41,13.30
2007,08,19,08,42,13.40
2007,08,19,08,43,13.40
2007,08,19,08,44,13.40
2007,08,19,08,45,13.40
2007,08,19,08,46,13.40
2007,08,19,08,47,13.40
2007,08,19,08,48,13.40
2007,08,19,08,49,13.40
2007,08,19,08,50,13.40
2007,08,19,08,51,13.30
2007,08,19,08,52,13.40
2007,08,19,08,53,13.40
2007,08,19,08,54,13.40
2007,08,19,08,55,13.40
2007,08,19,08,56,13.40
2007,08,19,08,57,13.40
2007,08,19,08,58,13.40
2007,08,19,08,59,13.40
2007,08,19,09,00,13.40
2007,08,19,09,01,13.50
2007,08,19,09,02,13.50
2007,08,19,09,03,13.50
2007,08,19,09,04,13.60
2007,08,19,09,05,13.60
2007,08,19,09,06,13.60
2007,08,19,09,07,13.60
2007,08,19,09,08,13.60
2007,08,19,09,09,13.70
2007,08,19,09,10,13.70
2007,08,19,09,11,13.70
2007,08,19,09,12,13.70
2007,08,19,09,13,13.80
2007,08,19,09,14,13.80
2007,08,19,09,15,13.80
2007,08,19,09,16,13.80
2007,08,19,09,17,13.80
2007,08,19,09,18,13.80
2007,08,19,09,19,13.80
2007,08,19,09,20,13.80
2007,08,19,09,21,13.70
2007,08,19,09,22,13.70
2007,08,19,09,23,13.80
2007,08,19,09,24,13.80
2007,08,19,09,25,13.80
2007,08,19,09,26,13.80
2007,08,19,09,27,13.80
2007,08,19,09,28,13.80
2007,08,19,09,29,13.80
2007,08,19,09,30,13.80
2007,08,19,09,31,13.80
2007,08,19,09,32,13.80
2007,08,19,09,33,13.80
2007,08,19,09,34,13.80
2007,08,19,09,35,13.90
2007,08,19,09,36,13.90
2007,08,19,09,37,13.90
2007,08,19,09,38,13.90
2007,08,19,09,39,13.90
2007,08,19,09,40,13.90
2007,08,19,09,41,13.90
2007,08,19,09,42,14.00
2007,08,19,09,43,13.90
2007,08,19,09,44,13.90
2007,08,19,09,45,13.90
2007,08,19,09,46,13.90
2007,08,19,09,47,13.90
2007,08,19,09,48,13.90
2007,08,19,09,49,13.90
2007,08,19,09,50,13.90
2007,08,19,09,51,13.90
2007,08,19,09,52,13.90
2007,08,19,09,53,13.90
2007,08,19,09,54,13.90
2007,08,19,09,55,13.90
2007,08,19,09,56,14.00
2007,08,19,09,57,14.00
2007,08,19,09,58,14.00
2007,08,19,09,59,14.10
2007,08,19,10,00,14.10
2007,08,19,10,01,14.10
2007,08,19,10,02,14.10
2007,08,19,10,03,14.10
2007,08,19,10,04,14.10
2007,08,19,10,05,14.20
2007,08,19,10,06,14.20
2007,08,19,10,07,14.20
2007,08,19,10,08,14.20
2007,08,19,10,09,14.20
2007,08,19,10,10,14.20
2007,08,19,10,11,14.30
2007,08,19,10,12,14.30
2007,08,19,10,13,14.30
2007,08,19,10,14,14.30
2007,08,19,10,15,14.30
2007,08,19,10,16,14.30
2007,08,19,10,17,14.30
2007,08,19,10,18,14.30
2007,08,19,10,19,14.30
2007,08,19,10,20,14.30
2007,08,19,10,21,14.30
2007,08,19,10,22,14.30
2007,08,19,10,23,14.40
2007,08,19,10,24,14.40
2007,08,19,10,25,14.40
2007,08,19,10,26,14.40
2007,08,19,10,27,14.40
2007,08,19,10,28,14.40
2007,08,19,10,29,14.40
2007,08,19,10,30,14.40
2007,08,19,10,31,14.40
2007,08,19,10,32,14.40
2007,08,19,10,33,14.40
2007,08,19,10,34,14.40
2007,08,19,10,35,14.40
2007,08,19,10,36,14.40
2007,08,19,10,37,14.50
2007,08,19,10,38,14.50
2007,08,19,10,39,14.50
2007,08,19,10,40,14.50
2007,08,19,10,41,14.60
2007,08,19,10,42,14.60
2007,08,19,10,43,14.60
2007,08,19,10,44,14.60
2007,08,19,10,45,14.60
2007,08,19,10,46,14.60
2007,08,19,10,47,14.70
2007,08,19,10,48,14.70
2007,08,19,10,49,14.70
2007,08,19,10,50,14.70
2007,08,19,10,51,14.70
2007,08,19,10,52,14.70
2007,08,19,10,53,14.70
2007,08,19,10,54,14.70
2007,08,19,10,55,14.70
2007,08,19,10,56,14.70
2007,08,19,10,57,14.70
2007,08,19,10,58,14.70
2007,08,19,10,59,14.70
2007,08,19,11,00,14.70
2007,08,19,11,01,14.70
2007,08,19,11,02,14.70
2007,08,19,11,03,14.80
2007,08,19,11,04,14.80
2007,08,19,11,05,14.80
2007,08,19,11,06,14.90
2007,08,19,11,07,14.90
2007,08,19,11,08,15.00
2007,08,19,11,09,15.00
2007,08,19,11,10,15.00
2007,08,19,11,11,15.00
2007,08,19,11,12,15.00
2007,08,19,11,13,15.10
2007,08,19,11,14,15.20
2007,08,19,11,15,15.20
2007,08,19,11,16,15.30
2007,08,19,11,17,15.30
2007,08,19,11,18,15.30
2007,08,19,11,19,15.40
2007,08,19,11,20,15.40
2007,08,19,11,21,15.40
2007,08,19,11,22,15.40
2007,08,19,11,23,15.60
2007,08,19,11,24,15.80
2007,08,19,11,25,15.90
2007,08,19,11,26,16.00
2007,08,19,11,27,16.10
2007,08,19,11,28,16.20
2007,08,19,11,29,16.40
2007,08,19,11,30,16.50
2007,08,19,11,31,16.60
2007,08,19,11,32,16.80
2007,08,19,11,33,16.90
2007,08,19,11,34,17.00
2007,08,19,11,35,17.10
2007,08,19,11,36,17.10
2007,08,19,11,37,17.10
2007,08,19,11,38,17.10
2007,08,19,11,39,17.20
2007,08,19,11,40,17.20
2007,08,19,11,41,17.20
2007,08,19,11,42,17.20
2007,08,19,11,43,17.20
2007,08,19,11,44,17.20
2007,08,19,11,45,17.10
2007,08,19,11,46,17.10
2007,08,19,11,47,17.10
2007,08,19,11,48,17.10
2007,08,19,11,49,17.00
2007,08,19,11,50,16.90
2007,08,19,11,51,16.80
2007,08,19,11,52,16.80
2007,08,19,11,53,16.80
2007,08,19,11,54,16.80
2007,08,19,11,55,16.80
2007,08,19,11,56,16.90
2007,08,19,11,57,16.90
2007,08,19,11,58,16.90
2007,08,19,11,59,17.00
2007,08,19,12,00,17.10
2007,08,19,12,01,17.20
2007,08,19,12,02,17.20
2007,08,19,12,03,17.20
2007,08,19,12,04,17.10
2007,08,19,12,05,17.10
2007,08,19,12,06,17.10
2007,08,19,12,07,17.10
2007,08,19,12,08,17.00
2007,08,19,12,09,17.00
2007,08,19,12,10,17.00
2007,08,19,12,11,17.00
2007,08,19,12,12,17.00
2007,08,19,12,13,17.10
2007,08,19,12,14,17.10
2007,08,19,12,15,17.10
2007,08,19,12,16,17.20
2007,08,19,12,17,17.20
2007,08,19,12,18,17.20
2007,08,19,12,19,17.20
2007,08,19,12,20,17.20
2007,08,19,12,21,17.10
2007,08,19,12,22,17.00
2007,08,19,12,23,16.90
2007,08,19,12,24,16.80
2007,08,19,12,25,16.70
2007,08,19,12,26,16.70
2007,08,19,12,27,16.70
2007,08,19,12,28,16.60
2007,08,19,12,29,16.60
2007,08,19,12,30,16.60
2007,08,19,12,31,16.60
2007,08,19,12,32,16.50
2007,08,19,12,33,16.50
2007,08,19,12,34,16.40
2007,08,19,12,35,16.40
2007,08,19,12,36,16.40
2007,08,19,12,37,16.40
2007,08,19,12,38,16.30
2007,08,19,12,39,16.30
2007,08,19,12,40,16.20
2007,08,19,12,41,16.20
2007,08,19,12,42,16.20
2007,08,19,12,43,16.20
2007,08,19,12,44,16.20
2007,08,19,12,45,16.20
2007,08,19,12,46,16.20
2007,08,19,12,47,16.20
2007,08,19,12,48,16.20
2007,08,19,12,49,16.20
2007,08,19,12,50,16.20
2007,08,19,12,51,16.20
2007,08,19,12,52,16.20
2007,08,19,12,53,16.10
2007,08,19,12,54,16.10
2007,08,19,12,55,16.10
2007,08,19,12,56,16.00
2007,08,19,12,57,16.00
2007,08,19,12,58,16.00
2007,08,19,12,59,15.90
2007,08,19,13,00,16.00
2007,08,19,13,01,16.00
2007,08,19,13,02,16.00
2007,08,19,13,03,16.00
2007,08,19,13,04,16.00
2007,08,19,13,05,16.00
2007,08,19,13,06,16.00
2007,08,19,13,07,16.00
2007,08,19,13,08,16.00
2007,08,19,13,09,16.00
2007,08,19,13,10,16.00
2007,08,19,13,11,16.00
2007,08,19,13,12,16.00
2007,08,19,13,13,16.00
2007,08,19,13,14,16.00
2007,08,19,13,15,15.90
2007,08,19,13,16,15.90
2007,08,19,13,17,15.90
2007,08,19,13,18,15.90
2007,08,19,13,19,16.00
2007,08,19,13,20,16.00
2007,08,19,13,21,16.10
2007,08,19,13,22,16.20
2007,08,19,13,23,16.30
2007,08,19,13,24,16.40
2007,08,19,13,25,16.40
2007,08,19,13,26,16.50
2007,08,19,13,27,16.60
2007,08,19,13,28,16.60
2007,08,19,13,29,16.70
2007,08,19,13,30,16.70
2007,08,19,13,31,16.70
2007,08,19,13,32,16.70
2007,08,19,13,33,16.70
2007,08,19,13,34,16.80
2007,08,19,13,35,16.80
2007,08,19,13,36,16.90
2007,08,19,13,37,16.90
2007,08,19,13,38,16.90
2007,08,19,13,39,17.00
2007,08,19,13,40,17.00
2007,08,19,13,41,17.10
2007,08,19,13,42,17.10
2007,08,19,13,43,17.20
2007,08,19,13,44,17.20
2007,08,19,13,45,17.20
2007,08,19,13,46,17.30
2007,08,19,13,47,17.30
2007,08,19,13,48,17.30
2007,08,19,13,49,17.30
2007,08,19,13,50,17.20
2007,08,19,13,51,17.20
2007,08,19,13,52,17.10
2007,08,19,13,53,17.10
2007,08,19,13,54,17.10
2007,08,19,13,55,17.10
2007,08,19,13,56,17.10
2007,08,19,13,57,17.10
2007,08,19,13,58,17.00
2007,08,19,13,59,17.10
2007,08,19,14,00,17.10
2007,08,19,14,01,17.10
2007,08,19,14,02,17.10
2007,08,19,14,03,17.10
2007,08,19,14,04,17.20
2007,08,19,14,05,17.20
2007,08,19,14,06,17.20
2007,08,19,14,07,17.20
2007,08,19,14,08,17.20
2007,08,19,14,09,17.20
2007,08,19,14,10,17.20
2007,08,19,14,11,17.30
2007,08,19,14,12,17.30
2007,08,19,14,13,17.30
2007,08,19,14,14,17.30
2007,08,19,14,15,17.30
2007,08,19,14,16,17.30
2007,08,19,14,17,17.30
2007,08,19,14,18,17.30
2007,08,19,14,19,17.40
2007,08,19,14,20,17.40
2007,08,19,14,21,17.40
2007,08,19,14,22,17.40
2007,08,19,14,23,17.40
2007,08,19,14,24,17.50
2007,08,19,14,25,17.50
2007,08,19,14,26,17.60
2007,08,19,14,27,17.60
2007,08,19,14,28,17.70
2007,08,19,14,29,17.70
2007,08,19,14,30,17.70
2007,08,19,14,31,17.80
2007,08,19,14,32,17.80
2007,08,19,14,33,17.80
2007,08,19,14,34,17.80
2007,08,19,14,35,17.80
2007,08,19,14,36,17.80
2007,08,19,14,37,17.90
2007,08,19,14,38,17.90
2007,08,19,14,39,17.90
2007,08,19,14,40,18.00
2007,08,19,14,41,18.10
2007,08,19,14,42,18.10
2007,08,19,14,43,18.20
2007,08,19,14,44,18.20
2007,08,19,14,45,18.10
2007,08,19,14,46,18.10
2007,08,19,14,47,18.10
2007,08,19,14,48,18.10
2007,08,19,14,49,18.10
2007,08,19,14,50,18.20
2007,08,19,14,51,18.30
2007,08,19,14,52,18.30
2007,08,19,14,53,18.40
2007,08,19,14,54,18.50
2007,08,19,14,55,18.60
2007,08,19,14,56,18.70
2007,08,19,14,57,18.70
2007,08,19,14,58,18.70
2007,08,19,14,59,18.70
2007,08,19,15,00,18.60
2007,08,19,15,01,18.60
2007,08,19,15,02,18.60
2007,08,19,15,03,18.60
2007,08,19,15,04,18.70
2007,08,19,15,05,18.70
2007,08,19,15,06,18.70
2007,08,19,15,07,18.70
2007,08,19,15,08,18.70
2007,08,19,15,09,18.80
2007,08,19,15,10,18.80
2007,08,19,15,11,18.80
2007,08,19,15,12,18.80
2007,08,19,15,13,18.70
2007,08,19,15,14,18.70
2007,08,19,15,15,18.70
2007,08,19,15,16,18.70
2007,08,19,15,17,18.70
2007,08,19,15,18,18.70
2007,08,19,15,19,18.70
2007,08,19,15,20,18.60
2007,08,19,15,21,18.70
2007,08,19,15,22,18.70
2007,08,19,15,23,18.80
2007,08,19,15,24,18.80
2007,08,19,15,25,18.80
2007,08,19,15,26,18.80
2007,08,19,15,27,18.80
2007,08,19,15,28,18.90
2007,08,19,15,29,18.80
2007,08,19,15,30,18.80
2007,08,19,15,31,18.90
2007,08,19,15,32,18.90
2007,08,19,15,33,18.90
2007,08,19,15,34,18.90
2007,08,19,15,35,18.90
2007,08,19,15,36,19.10
2007,08,19,15,37,19.10
2007,08,19,15,38,19.10
2007,08,19,15,39,19.00
2007,08,19,15,40,18.90
2007,08,19,15,41,18.90
2007,08,19,15,42,18.90
2007,08,19,15,43,19.00
2007,08,19,15,44,19.10
2007,08,19,15,45,19.10
2007,08,19,15,46,19.20
2007,08,19,15,47,19.30
2007,08,19,15,48,19.50
2007,08,19,15,49,19.50
2007,08,19,15,50,19.60
2007,08,19,15,51,19.70
2007,08,19,15,52,19.70
2007,08,19,15,53,19.70
2007,08,19,15,54,19.70
2007,08,19,15,55,19.70
2007,08,19,15,56,19.70
2007,08,19,15,57,19.70
2007,08,19,15,58,19.80
2007,08,19,15,59,19.80
2007,08,19,16,00,19.90
2007,08,19,16,01,20.00
2007,08,19,16,02,20.00
2007,08,19,16,03,20.00
2007,08,19,16,04,20.10
2007,08,19,16,05,20.30
2007,08,19,16,06,20.40
2007,08,19,16,07,20.40
2007,08,19,16,08,20.40
2007,08,19,16,09,20.50
2007,08,19,16,10,20.60
2007,08,19,16,11,20.70
2007,08,19,16,12,20.70
2007,08,19,16,13,20.80
2007,08,19,16,14,20.80
2007,08,19,16,15,20.80
2007,08,19,16,16,20.80
2007,08,19,16,17,20.80
2007,08,19,16,18,20.90
2007,08,19,16,19,20.90
2007,08,19,16,20,21.00
2007,08,19,16,21,20.90
2007,08,19,16,22,20.90
2007,08,19,16,23,20.80
2007,08,19,16,24,20.70
2007,08,19,16,25,20.60
2007,08,19,16,26,20.60
2007,08,19,16,27,20.60
2007,08,19,16,28,20.60
2007,08,19,16,29,20.60
2007,08,19,16,30,20.60
2007,08,19,16,31,20.60
2007,08,19,16,32,20.60
2007,08,19,16,33,20.70
2007,08,19,16,34,20.70
2007,08,19,16,35,20.70
2007,08,19,16,36,20.80
2007,08,19,16,37,20.80
2007,08,19,16,38,20.80
2007,08,19,16,39,20.90
2007,08,19,16,40,21.00
2007,08,19,16,41,21.10
2007,08,19,16,42,21.10
2007,08,19,16,43,21.00
2007,08,19,16,44,21.00
2007,08,19,16,45,21.00
2007,08,19,16,46,21.00
2007,08,19,16,47,21.00
2007,08,19,16,48,21.10
2007,08,19,16,49,21.20
2007,08,19,16,50,21.30
2007,08,19,16,51,21.30
2007,08,19,16,52,21.40
2007,08,19,16,53,21.40
2007,08,19,16,54,21.40
2007,08,19,16,55,21.40
2007,08,19,16,56,21.40
2007,08,19,16,57,21.40
2007,08,19,16,58,21.40
2007,08,19,16,59,21.40
2007,08,19,17,00,21.50
2007,08,19,17,01,21.50
2007,08,19,17,02,21.60
2007,08,19,17,03,21.50
2007,08,19,17,04,21.40
2007,08,19,17,05,21.40
2007,08,19,17,06,21.40
2007,08,19,17,07,21.30
2007,08,19,17,08,21.20
2007,08,19,17,09,21.20
2007,08,19,17,10,21.20
2007,08,19,17,11,21.20
2007,08,19,17,12,21.20
2007,08,19,17,13,21.20
2007,08,19,17,14,21.20
2007,08,19,17,15,21.20
2007,08,19,17,16,21.10
2007,08,19,17,17,21.00
2007,08,19,17,18,21.00
2007,08,19,17,19,21.00